Regional Weather Roundup
Issued by NWS

Home | Current Version | Previous Version | Graphics & Text | Print | Product List | Glossary On
Versions: 1 2 3 4 5 6 7 8 9 10 11 12 13 14 15 16 17 18 19 20 21 22 23 24 25 26 27 28 29 30 31 32 33 34 35 36 37 38 39 40 41 42 43 44 45 46 47 48 49 50
000
ASUS45 KCYS 271510
RWRWY

WYOMING REGIONAL WEATHER ROUNDUP
NATIONAL WEATHER SERVICE CHEYENNE WY
900 AM MDT WED AUG 27 2014

NOTE:  "FAIR" INDICATES FEW OR NO CLOUDS BELOW 12,000 FEET
WITH NO SIGNIFICANT WEATHER AND/OR OBSTRUCTIONS TO VISIBILITY.

WYZ001-271600-
YELLOWSTONE NATIONAL PARK

CITY           SKY/WX    TMP DP  RH WIND       PRES   REMARKS
LK YELLOWSTONE   N/A     50  45  83 CALM      30.39F
W YELLOWSTONE  NOT AVBL

$$
WYZ002>013-054>058-071-098>099-271600-
NORTHERN WYOMING

CITY           SKY/WX    TMP DP  RH WIND       PRES   REMARKS
JACKSON        PTSUNNY   46  45  93 CALM      30.32S
CODY           MOSUNNY   61  46  59 SW5       30.19S
GREYBULL       PTSUNNY   59  52  77 CALM      30.14S
WORLAND          N/A     58  54  86 CALM      30.14F
SHERIDAN       PTSUNNY   57  51  80 CALM      30.13F
BUFFALO        PTSUNNY   63  49  60 S3        30.19F
GILLETTE       PTSUNNY   66  57  72 S9        30.17S
HULETT         FAIR      61  54  77 MISG      30.18
NEWCASTLE      FAIR      68  54  60 W5        30.16

$$
WYZ014>020-022>026-101>103-271600-
CENTRAL WYOMING

CITY           SKY/WX    TMP DP  RH WIND       PRES   REMARKS
BIG PINEY      CLOUDY    51  47  86 S3        30.32R
PINEDALE       CLOUDY    50  45  81 CALM      30.33S
DUBOIS         FAIR      48  41  76 NW8       30.31S
LANDER         CLOUDY    59  48  67 W3        30.21R
RIVERTON       CLOUDY    58  49  72 CALM      30.21S
CASPER         CLOUDY    59  52  77 CALM      30.20S
DOUGLAS        CLOUDY    62  58  86 E9        30.19F

$$
WYZ021-027>030-104>119-271600-
SOUTHERN WYOMING

CITY           SKY/WX    TMP DP  RH WIND       PRES   REMARKS
EVANSTON       CLOUDY    51  47  86 S5        30.33S
KEMMERER       LGT RAIN  50  46  87 N3        30.35R
FORT BRIDGER     N/A     52  50  93 W6        30.36R
ROCK SPRINGS   LGT RAIN  51  50  96 SE6       30.32R
DIXON          CLOUDY    54  51  87 CALM      30.33F
RAWLINS        LGT RAIN  52  50  93 SW17      30.30S
SARATOGA       CLOUDY    50  50 100 MISG      30.32S
LARAMIE        CLOUDY    53  50  89 W7        30.30R
CHEYENNE       CLOUDY    59  55  87 W7        30.21S
TORRINGTON     CLOUDY    66  62  87 E12       30.12F
PINE BLUFFS    CLOUDY    61  59  94 NE3       30.18S FOG

$$


USA.gov is the U.S. government's official web portal to all federal, state and local government web resources and services.